Maastricht, Netherlands

5:01 PM CET on March 23, 2017 (GMT +0100)
Maastricht-Aachen

Weather History for EHBK - January, 2013

Change the Weather History Date:

Wednesday, January 16, 2013

  Actual Average Record
Temperature  
Mean Temperature 23 °F -  
Max Temperature 25 °F 41 °F 55 °F (2011)
Min Temperature 21 °F 31 °F 21 °F (2013)
Degree Days  
Heating Degree Days 42    
Moisture  
Dew Point 22 °F    
Average Humidity 93    
Maximum Humidity 100    
Minimum Humidity 86    
Precipitation  
Precipitation 0.00 in 0.07 in - ()
Sea Level Pressure  
Sea Level Pressure 29.84 in    
Wind  
Wind Speed 6 mph ()    
Max Wind Speed 9 mph    
Max Gust Speed -    
Visibility 2.1 miles    
Events Rain , Snow    
Averages and records for this station are not official NWS values.
T = Trace of Precipitation, MM = Missing Value Source: Averaged Metar Reports

Daily Weather History Graph

Daily Weather History Graph

Search for Another Location

Airport or City:

Trip Planner

Search our weather history database for the weather conditions in past years. The results will help you decide how hot, cold, wet, or windy it might be!

Date:

Astronomy

Jan. 16, 2013 Rise Set
Actual Time 8:32 AM CET 5:01 PM CET
Civil Twilight 7:54 AM CET 5:39 PM CET
Nautical Twilight 7:13 AM CET 6:20 PM CET
Astronomical Twilight 6:34 AM CET 6:59 PM CET
Moon 10:21 AM CET (1/16) 11:20 PM CET (1/16)
Length of Visible Light 9h 44m
Length of Day
8h 29m
Waxing Crescent, 25% of the Moon is Illuminated
Jan 16
Waxing Crescent
Jan 19
First Quarter
Jan 27
Full
Feb 3
Last Quarter
Feb 10
New

Hourly Weather History & Observations

Time (CET) Temp. Windchill Dew Point Humidity Pressure Visibility Wind Dir Wind Speed Gust Speed Precip Events Conditions
12:25 AM 24.8 °F 16.1 °F 23.0 °F 93% 29.74 in 1.7 mi NNW 8.1 mph - N/A Snow Light Snow
12:55 AM 24.8 °F 16.1 °F 23.0 °F 93% 29.77 in 2.2 mi NNW 8.1 mph - N/A Snow Light Snow Grains
1:00 AM 25 °F - 23 °F 88% 29.80 in 2 mi NNW 8.9 mph - - Snow Snow Grains
1:25 AM 24.8 °F 15.3 °F 23.0 °F 93% 29.77 in - NNW 9.2 mph - N/A Snow Light Snow Grains
1:55 AM 24.8 °F 16.1 °F 23.0 °F 93% 29.77 in 2.2 mi NNW 8.1 mph - N/A Snow Light Snow
2:25 AM 24.8 °F 16.9 °F 23.0 °F 93% 29.77 in 1.7 mi NNW 6.9 mph - N/A Snow Light Snow
2:55 AM 24.8 °F 16.1 °F 23.0 °F 93% 29.77 in - NNW 8.1 mph - N/A Snow Light Snow
3:25 AM 24.8 °F 16.1 °F 23.0 °F 93% 29.77 in - NNW 8.1 mph - N/A Snow Light Snow
3:55 AM 24.8 °F 15.3 °F 23.0 °F 93% 29.77 in 2.2 mi NNW 9.2 mph - N/A Snow Light Snow
4:00 AM 24 °F - 23 °F 92% 29.81 in 3 mi NNW 8.9 mph - - Snow Light Snow
4:25 AM 24.8 °F 16.1 °F 23.0 °F 93% 29.77 in 1.4 mi NNW 8.1 mph - N/A Snow Light Snow
4:55 AM 23.0 °F 13.9 °F 23.0 °F 100% 29.77 in 1.5 mi NNW 8.1 mph - N/A Snow Light Snow
5:25 AM 23.0 °F 13.9 °F 23.0 °F 100% 29.77 in 1.4 mi North 8.1 mph - N/A Snow Light Snow
5:55 AM 23.0 °F 15.8 °F 21.2 °F 93% 29.77 in 1.7 mi NNW 5.8 mph - N/A Snow Light Snow
6:25 AM 23.0 °F 15.8 °F 21.2 °F 93% 29.77 in 1.5 mi NNW 5.8 mph - N/A Snow Light Snow
6:55 AM 23.0 °F 14.7 °F 19.4 °F 86% 29.77 in 4.3 mi NNW 6.9 mph - N/A   Mostly Cloudy
7:00 AM 22 °F - 20 °F 88% 29.81 in 2 mi NNW 6.7 mph - - Rain Light Freezing Rain
7:25 AM 23.0 °F 15.8 °F 19.4 °F 86% 29.77 in 5.0 mi North 5.8 mph - N/A   Mostly Cloudy
7:55 AM 21.2 °F 14.9 °F 19.4 °F 93% 29.77 in 4.3 mi NNW 4.6 mph - N/A   Overcast
8:25 AM 21.2 °F 16.4 °F 19.4 °F 93% 29.80 in 4.3 mi NW 3.5 mph - N/A   Overcast
8:55 AM 21.2 °F 16.4 °F 19.4 °F 93% 29.80 in 4.3 mi NW 3.5 mph - N/A   Overcast
9:25 AM 21.2 °F 14.9 °F 19.4 °F 93% 29.80 in - NW 4.6 mph - N/A Snow Light Snow
9:55 AM 21.2 °F 14.9 °F 19.4 °F 93% 29.80 in 3.1 mi NNW 4.6 mph - N/A Snow Light Snow
10:00 AM 21 °F - 19 °F 89% 29.86 in 3 mi NNW 4.5 mph - - Snow Light Snow Showers
10:25 AM 21.2 °F 14.9 °F 19.4 °F 93% 29.80 in 3.1 mi NNW 4.6 mph - N/A Snow Light Snow
10:55 AM 21.2 °F 16.4 °F 19.4 °F 93% 29.83 in 3.1 mi NNW 3.5 mph - N/A   Mostly Cloudy
11:25 AM 21.2 °F 16.4 °F 19.4 °F 93% 29.83 in - NNW 3.5 mph - N/A   Partly Cloudy
11:55 AM 23.0 °F 18.4 °F 19.4 °F 86% 29.83 in - NNW 3.5 mph - N/A   Partly Cloudy
12:25 PM 23.0 °F 17.0 °F 21.2 °F 93% 29.83 in - NNW 4.6 mph - N/A   Partly Cloudy
12:55 PM 23.0 °F 17.0 °F 21.2 °F 93% 29.83 in - NNW 4.6 mph - N/A   Overcast
1:00 PM 23 °F - 21 °F 89% 29.86 in 2 mi NNW 4.5 mph - -   Unknown Precipitation
1:25 PM 23.0 °F 17.0 °F 21.2 °F 93% 29.83 in 1.7 mi NNW 4.6 mph - N/A   Overcast
1:55 PM 23.0 °F - 21.2 °F 93% 29.83 in 1.6 mi Variable 2.3 mph - N/A   Overcast
2:25 PM 23.0 °F 17.0 °F 21.2 °F 93% 29.80 in 1.6 mi North 4.6 mph - N/A   Overcast
2:55 PM 23.0 °F 17.0 °F 21.2 °F 93% 29.83 in - North 4.6 mph - N/A   Mostly Cloudy
3:25 PM 23.0 °F 18.4 °F 21.2 °F 93% 29.83 in 1.7 mi North 3.5 mph - N/A   Overcast
3:55 PM 23.0 °F 17.0 °F 21.2 °F 93% 29.83 in 1.7 mi North 4.6 mph - N/A   Overcast
4:00 PM 23 °F - 22 °F 92% 29.89 in 1 mi NNW 4.5 mph - -   Mist
4:25 PM 23.0 °F 15.8 °F 21.2 °F 93% 29.86 in 1.4 mi NW 5.8 mph - N/A   Overcast
4:55 PM 23.0 °F 17.0 °F 21.2 °F 93% 29.86 in 1.4 mi NNW 4.6 mph - N/A   Overcast
5:25 PM 23.0 °F 15.8 °F 23.0 °F 100% 29.86 in 1.5 mi NNW 5.8 mph - N/A   Overcast
5:55 PM 23.0 °F 17.0 °F 23.0 °F 100% 29.89 in 1.7 mi North 4.6 mph - N/A   Overcast
6:25 PM 23.0 °F 17.0 °F 23.0 °F 100% 29.89 in 1.7 mi North 4.6 mph - N/A   Overcast
6:55 PM 24.8 °F 19.1 °F 23.0 °F 93% 29.89 in 1.7 mi North 4.6 mph - N/A   Overcast
7:00 PM 24 °F - 22 °F 90% 29.94 in 2 mi North 4.5 mph - -   Mist
7:25 PM 24.8 °F 19.1 °F 23.0 °F 93% 29.89 in 1.7 mi North 4.6 mph - N/A   Overcast
7:55 PM 24.8 °F 19.1 °F 23.0 °F 93% 29.89 in 1.5 mi NNW 4.6 mph - N/A   Overcast
8:25 PM 24.8 °F 16.9 °F 23.0 °F 93% 29.92 in 1.4 mi North 6.9 mph - N/A   Overcast
8:55 PM 24.8 °F 19.1 °F 23.0 °F 93% 29.92 in 1.5 mi North 4.6 mph - N/A   Overcast
9:25 PM 24.8 °F 19.1 °F 23.0 °F 93% 29.92 in 1.4 mi North 4.6 mph - N/A   Overcast
9:55 PM 24.8 °F 19.1 °F 23.0 °F 93% 29.92 in 1.5 mi North 4.6 mph - N/A   Overcast
10:00 PM 24 °F - 23 °F 95% 29.97 in 1 mi North 6.7 mph - -   Mist
10:25 PM 24.8 °F 16.9 °F 23.0 °F 93% 29.92 in 1.4 mi NNE 6.9 mph - N/A   Overcast
10:55 PM 24.8 °F 16.9 °F 23.0 °F 93% 29.92 in 1.5 mi NNE 6.9 mph - N/A   Overcast
11:25 PM 24.8 °F 19.1 °F 23.0 °F 93% 29.95 in 1.6 mi North 4.6 mph - N/A   Overcast
11:55 PM 24.8 °F 20.5 °F 23.0 °F 93% 29.95 in 1.6 mi North 3.5 mph - N/A   Overcast